Location: Austin
(30.3000°N, 97.7500°W)
Time: 02:45:14
(UTC-06:00)

Cosmos 1862 - Pass Details

Date: 20 November 2023
Orbit: 517 x 536 km, 82.5° (Epoch: 04 December)

Event Time Altitude Azimuth Distance (km) Brightness Sun altitude
Rises 19:02:09 0° 357° (N) 2,649 6.7 -19.3°
Reaches altitude 10° 19:04:18 10° 360° (N) 1,760 5.8 -19.8°
Maximum altitude 19:08:09 69° 83° (E) 564 3.0 -20.6°
Drops below altitude 10° 19:11:59 10° 167° (SSE) 1,760 5.9 -21.4°
Sets 19:14:08 0° 170° (S) 2,649 6.8 -21.9°
